MEA225 UBBB-OLBA

Flight info

Callsign MEA225
Flight time 2h 32m
Altitude 36000
Route GILAB DCT PARSU DCT PAD DCT DASDA DCT DARUN DCT TBZ DCT SETNA DCT RABEM DCT DERIL DCT NARLI DCT OTKEP DCT VAKUL DCT SRT DCT DYB DCT DEMEB DCT MAVES DCT GAP DCT LUTAM DCT ELGEX DCT SUGAT DCT GAZ DCT KOZAN DCT BABLI DCT MILBA DCT HTY DCT TUNLA DCT NIKAS
Aircraft A20N/M-SDE2E3FGHIRWXY/LB1

Departure

Time 2026-04-30 10:47
Airport Heydar Aliyev International Airport (UBBB)

Arrival

Time 2026-04-30 13:19
Airport Beirut Rafic Hariri International Airport (OLBA)
Time Latitude Longitude Altitude Speed Heading
2026-04-30 10:38 40.46244 50.05958 0 ft 8 kts 360°
2026-04-30 10:38 40.46320 50.05955 1 ft 14 kts 358°
2026-04-30 10:38 40.46431 50.05955 2 ft 12 kts
2026-04-30 10:38 40.46488 50.05953 2 ft 9 kts 347°
2026-04-30 10:39 40.46521 50.05889 3 ft 10 kts 272°
2026-04-30 10:39 40.46518 50.05783 2 ft 13 kts 268°
2026-04-30 10:39 40.46516 50.05650 2 ft 13 kts 269°
2026-04-30 10:39 40.46547 50.05579 2 ft 10 kts 331°
2026-04-30 10:40 40.46584 50.05553 2 ft 11 kts 332°
2026-04-30 10:40 40.46650 50.05499 2 ft 11 kts 327°
2026-04-30 10:40 40.46708 50.05451 2 ft 9 kts 328°
2026-04-30 10:40 40.46770 50.05400 3 ft 12 kts 328°
2026-04-30 10:41 40.46845 50.05325 3 ft 15 kts 318°
2026-04-30 10:41 40.46918 50.05208 3 ft 18 kts 289°
2026-04-30 10:41 40.46919 50.05030 2 ft 22 kts 268°
2026-04-30 10:41 40.46919 50.04843 1 ft 20 kts 268°
2026-04-30 10:42 40.46912 50.04648 0 ft 23 kts 268°
2026-04-30 10:42 40.46906 50.04416 -1 ft 26 kts 264°
2026-04-30 10:42 40.46881 50.04234 -1 ft 22 kts 258°
2026-04-30 10:42 40.46837 50.04054 -2 ft 17 kts 227°
2026-04-30 10:43 40.46732 50.04061 -2 ft 18 kts 161°
2026-04-30 10:43 40.46590 50.04131 -3 ft 25 kts 159°
2026-04-30 10:43 40.46408 50.04220 -4 ft 31 kts 159°
2026-04-30 10:43 40.46240 50.04300 -5 ft 27 kts 160°
2026-04-30 10:44 40.46052 50.04393 -6 ft 25 kts 159°
2026-04-30 10:44 40.45870 50.04485 -7 ft 31 kts 159°
2026-04-30 10:44 40.45744 50.04540 -8 ft 12 kts 173°
2026-04-30 10:44 40.45678 50.04463 -9 ft 16 kts 249°
2026-04-30 10:45 40.45639 50.04297 -9 ft 21 kts 261°
2026-04-30 10:45 40.45622 50.04171 -9 ft 9 kts 264°
2026-04-30 10:45 40.45661 50.04113 -8 ft 9 kts 343°
2026-04-30 10:45 40.45672 50.04110 -8 ft 0 kts 347°
2026-04-30 10:46 40.45734 50.04091 -7 ft 30 kts 346°
2026-04-30 10:46 40.46176 50.03952 -5 ft 97 kts 347°
2026-04-30 10:46 40.46998 50.03691 83 ft 136 kts 346°
2026-04-30 10:47 40.47913 50.03387 655 ft 135 kts 344°
2026-04-30 10:47 40.48804 50.03060 1308 ft 134 kts 342°
2026-04-30 10:47 40.49709 50.02727 1920 ft 141 kts 342°
2026-04-30 10:47 40.50713 50.02359 2396 ft 160 kts 343°
2026-04-30 10:48 40.51838 50.01964 2911 ft 175 kts 344°
2026-04-30 10:48 40.53098 50.01541 3471 ft 199 kts 345°
2026-04-30 10:48 40.54546 50.01098 4007 ft 226 kts 346°
2026-04-30 10:48 40.56176 50.00643 4662 ft 251 kts 347°
2026-04-30 10:49 40.57955 50.00518 5433 ft 267 kts
2026-04-30 10:49 40.59670 50.01485 6497 ft 273 kts 36°
2026-04-30 10:49 40.60918 50.03398 7332 ft 283 kts 62°
2026-04-30 10:49 40.61432 50.05924 8022 ft 291 kts 90°
2026-04-30 10:50 40.61238 50.08586 9048 ft 295 kts 100°
2026-04-30 10:50 40.60868 50.11272 10031 ft 301 kts 102°
2026-04-30 10:50 40.60484 50.13997 10727 ft 316 kts 101°
2026-04-30 10:50 40.60107 50.16959 11136 ft 340 kts 100°
2026-04-30 10:51 40.59745 50.20137 11630 ft 357 kts 99°
2026-04-30 10:51 40.59400 50.23398 12530 ft 361 kts 99°
2026-04-30 10:51 40.59057 50.26689 13435 ft 365 kts 101°
2026-04-30 10:51 40.58493 50.29956 14263 ft 368 kts 110°
2026-04-30 10:52 40.57558 50.33093 15077 ft 368 kts 118°
2026-04-30 10:52 40.56440 50.36100 15858 ft 372 kts 119°
2026-04-30 10:52 40.55298 50.39184 16653 ft 375 kts 120°
2026-04-30 10:52 40.53794 50.41960 17400 ft 373 kts 139°
2026-04-30 10:53 40.51714 50.43949 18167 ft 369 kts 157°
2026-04-30 10:53 40.49275 50.44951 18883 ft 366 kts 175°
2026-04-30 10:53 40.46738 50.45062 19553 ft 366 kts 182°
2026-04-30 10:53 40.44201 50.45049 20213 ft 370 kts 182°
2026-04-30 10:54 40.41617 50.45035 20896 ft 373 kts 182°
2026-04-30 10:54 40.39885 50.45029 21347 ft 375 kts 182°
2026-04-30 10:54 40.37262 50.45024 21982 ft 378 kts 182°
2026-04-30 10:54 40.33792 50.44492 22836 ft 379 kts 198°
2026-04-30 10:55 40.31387 50.43072 23444 ft 381 kts 213°
2026-04-30 10:55 40.29377 50.40796 24009 ft 385 kts 229°
2026-04-30 10:55 40.28339 50.38895 24364 ft 388 kts 239°
2026-04-30 10:55 40.27303 50.35561 24903 ft 395 kts 254°
2026-04-30 10:56 40.26988 50.32004 25394 ft 403 kts 268°
2026-04-30 10:56 40.27171 50.28303 25866 ft 409 kts 272°
2026-04-30 10:56 40.27422 50.24574 26364 ft 412 kts 271°
2026-04-30 10:56 40.27587 50.20818 26845 ft 414 kts 269°
2026-04-30 10:57 40.27660 50.17035 27318 ft 416 kts 267°
2026-04-30 10:57 40.27673 50.13238 27764 ft 419 kts 266°
2026-04-30 10:57 40.27656 50.09391 28205 ft 422 kts 266°
2026-04-30 10:57 40.27628 50.05584 28635 ft 425 kts 266°
2026-04-30 10:58 40.27597 50.01698 29057 ft 427 kts 266°
2026-04-30 10:58 40.27566 49.97792 29447 ft 430 kts 266°
2026-04-30 10:58 40.27534 49.93852 29852 ft 433 kts 266°
2026-04-30 10:58 40.27502 49.89892 30233 ft 436 kts 266°
2026-04-30 10:59 40.27469 49.85904 30574 ft 438 kts 266°
2026-04-30 10:59 40.27434 49.81905 30918 ft 441 kts 266°
2026-04-30 10:59 40.27398 49.77929 31255 ft 443 kts 266°
2026-04-30 10:59 40.27361 49.73889 31675 ft 443 kts 266°
2026-04-30 11:00 40.27322 49.69857 32127 ft 442 kts 265°
2026-04-30 11:00 40.27280 49.65826 32552 ft 442 kts 265°
2026-04-30 11:00 40.27238 49.61794 32997 ft 441 kts 265°
2026-04-30 11:00 40.27196 49.57775 33443 ft 440 kts 265°
2026-04-30 11:01 40.27152 49.53821 33879 ft 439 kts 265°
2026-04-30 11:01 40.27089 49.49822 34264 ft 437 kts 263°
2026-04-30 11:01 40.26689 49.45894 34616 ft 432 kts 254°
2026-04-30 11:01 40.25850 49.42133 34971 ft 427 kts 246°
2026-04-30 11:02 40.24605 49.38616 35310 ft 424 kts 238°
2026-04-30 11:02 40.23105 49.35362 35630 ft 422 kts 237°
2026-04-30 11:02 40.21580 49.32066 35948 ft 422 kts 237°
2026-04-30 11:02 40.20064 49.28776 36099 ft 421 kts 237°
2026-04-30 11:03 40.17042 49.22221 36139 ft 419 kts 237°
2026-04-30 11:04 40.12530 49.12475 36137 ft 420 kts 237°
2026-04-30 11:04 40.09502 49.05952 36134 ft 419 kts 237°
2026-04-30 11:05 40.06468 48.99431 36127 ft 419 kts 237°
2026-04-30 11:05 40.03434 48.92925 36127 ft 419 kts 237°
2026-04-30 11:06 40.00415 48.86462 36124 ft 419 kts 237°
2026-04-30 11:06 39.97371 48.79961 36123 ft 419 kts 237°
2026-04-30 11:07 39.94327 48.73473 36125 ft 419 kts 237°
2026-04-30 11:07 39.91277 48.66986 36122 ft 419 kts 237°
2026-04-30 11:08 39.88227 48.60511 36122 ft 419 kts 237°
2026-04-30 11:08 39.85191 48.54080 36123 ft 419 kts 237°
2026-04-30 11:09 39.82133 48.47617 36110 ft 419 kts 237°
2026-04-30 11:09 39.79072 48.41159 36120 ft 419 kts 237°
2026-04-30 11:10 39.76023 48.34740 36119 ft 419 kts 237°
2026-04-30 11:10 39.72953 48.28289 36109 ft 419 kts 237°
2026-04-30 11:11 39.69899 48.21886 36103 ft 419 kts 238°
2026-04-30 11:11 39.66825 48.15454 36093 ft 418 kts 238°
2026-04-30 11:12 39.63764 48.09062 36084 ft 419 kts 238°
2026-04-30 11:12 39.60686 48.02648 36079 ft 418 kts 238°
2026-04-30 11:13 39.57397 47.96425 36076 ft 418 kts 230°
2026-04-30 11:13 39.53366 47.90970 36071 ft 419 kts 225°
2026-04-30 11:14 39.49218 47.85652 36077 ft 419 kts 225°
2026-04-30 11:14 39.45097 47.80357 36082 ft 419 kts 225°
2026-04-30 11:15 39.40955 47.75047 36086 ft 419 kts 225°
2026-04-30 11:15 39.36806 47.69742 36095 ft 419 kts 225°
2026-04-30 11:16 39.32681 47.64477 36096 ft 419 kts 225°
2026-04-30 11:16 39.28530 47.59187 36094 ft 419 kts 225°
2026-04-30 11:17 39.24376 47.53903 36097 ft 419 kts 225°
2026-04-30 11:17 39.20217 47.48623 36108 ft 419 kts 225°
2026-04-30 11:18 39.16056 47.43348 36102 ft 419 kts 225°
2026-04-30 11:18 39.09840 47.35485 36103 ft 419 kts 225°
2026-04-30 11:19 39.05711 47.30274 36113 ft 419 kts 225°
2026-04-30 11:19 39.01542 47.25021 36122 ft 419 kts 225°
2026-04-30 11:20 38.97393 47.19804 36112 ft 419 kts 225°
2026-04-30 11:20 38.93222 47.14567 36115 ft 419 kts 225°
2026-04-30 11:21 38.89035 47.09318 36115 ft 419 kts 225°
2026-04-30 11:21 38.84885 47.04126 36111 ft 419 kts 225°
2026-04-30 11:22 38.80701 46.98901 36104 ft 419 kts 225°
2026-04-30 11:22 38.76506 46.93670 36105 ft 420 kts 225°
2026-04-30 11:23 38.72352 46.88500 36102 ft 419 kts 225°
2026-04-30 11:24 38.66056 46.80680 36099 ft 419 kts 226°
2026-04-30 11:24 38.61862 46.75482 36093 ft 419 kts 226°
2026-04-30 11:25 38.55578 46.67710 36088 ft 420 kts 226°
2026-04-30 11:26 38.47185 46.57361 36082 ft 420 kts 226°
2026-04-30 11:26 38.42991 46.52208 36072 ft 422 kts 227°
2026-04-30 11:27 38.38723 46.46969 36073 ft 425 kts 227°
2026-04-30 11:27 38.34450 46.41730 36074 ft 425 kts 227°
2026-04-30 11:28 38.28058 46.33911 36068 ft 425 kts 227°
2026-04-30 11:29 38.23782 46.28693 36067 ft 426 kts 227°
2026-04-30 11:29 38.17375 46.20891 36057 ft 426 kts 227°
2026-04-30 11:30 38.10965 46.13106 36052 ft 426 kts 227°
2026-04-30 11:31 38.06664 46.07893 36051 ft 426 kts 227°
2026-04-30 11:31 38.02394 46.02725 36051 ft 426 kts 227°
2026-04-30 11:32 37.98090 45.97524 36047 ft 427 kts 227°
2026-04-30 11:32 37.94246 45.91868 36044 ft 422 kts 239°
2026-04-30 11:33 37.91653 45.85235 36042 ft 419 kts 251°
2026-04-30 11:33 37.90649 45.81770 36044 ft 419 kts 251°
2026-04-30 11:33 37.88628 45.74895 36038 ft 419 kts 251°
2026-04-30 11:34 37.86579 45.67978 36039 ft 419 kts 251°
2026-04-30 11:34 37.84526 45.61066 36041 ft 419 kts 251°
2026-04-30 11:35 37.82486 45.54207 36044 ft 418 kts 251°
2026-04-30 11:35 37.81024 45.47112 36045 ft 417 kts 262°
2026-04-30 11:36 37.80479 45.39800 36058 ft 416 kts 266°
2026-04-30 11:36 37.79992 45.32545 36068 ft 416 kts 265°
2026-04-30 11:37 37.79491 45.25235 36076 ft 416 kts 265°
2026-04-30 11:37 37.78987 45.17935 36079 ft 416 kts 265°
2026-04-30 11:38 37.78483 45.10685 36081 ft 416 kts 265°
2026-04-30 11:38 37.77972 45.03390 36082 ft 417 kts 265°
2026-04-30 11:39 37.77455 44.96087 36079 ft 416 kts 265°
2026-04-30 11:39 37.77021 44.90008 36076 ft 416 kts 265°
2026-04-30 11:40 37.76410 44.81516 36077 ft 417 kts 265°
2026-04-30 11:40 37.75969 44.75441 36077 ft 417 kts 265°
2026-04-30 11:41 37.75434 44.68131 36076 ft 417 kts 265°
2026-04-30 11:41 37.74894 44.60812 36076 ft 417 kts 265°
2026-04-30 11:42 37.74348 44.53480 36086 ft 417 kts 265°
2026-04-30 11:42 37.73802 44.46198 36108 ft 419 kts 265°
2026-04-30 11:43 37.73650 44.38864 36118 ft 418 kts 274°
2026-04-30 11:43 37.74241 44.31581 36123 ft 417 kts 275°
2026-04-30 11:44 37.74822 44.24265 36124 ft 419 kts 275°
2026-04-30 11:44 37.75398 44.16944 36122 ft 418 kts 275°
2026-04-30 11:45 37.75969 44.09625 36113 ft 418 kts 275°
2026-04-30 11:45 37.76532 44.02354 36108 ft 418 kts 275°
2026-04-30 11:46 37.77095 43.95022 36102 ft 417 kts 275°
2026-04-30 11:46 37.77651 43.87723 36093 ft 418 kts 275°
2026-04-30 11:47 37.78204 43.80399 36096 ft 418 kts 275°
2026-04-30 11:47 37.78750 43.73095 36102 ft 417 kts 275°
2026-04-30 11:48 37.79290 43.65822 36107 ft 417 kts 275°
2026-04-30 11:48 37.79826 43.58552 36112 ft 417 kts 275°
2026-04-30 11:49 37.80356 43.51280 36117 ft 417 kts 275°
2026-04-30 11:49 37.80886 43.43965 36122 ft 417 kts 275°
2026-04-30 11:50 37.81411 43.36656 36122 ft 417 kts 275°
2026-04-30 11:50 37.81931 43.29342 36125 ft 417 kts 274°
2026-04-30 11:51 37.82442 43.22086 36127 ft 417 kts 274°
2026-04-30 11:51 37.82954 43.14755 36131 ft 417 kts 274°
2026-04-30 11:52 37.83461 43.07435 36130 ft 417 kts 274°
2026-04-30 11:52 37.83960 43.00156 36133 ft 418 kts 274°
2026-04-30 11:53 37.84458 42.92832 36125 ft 417 kts 274°
2026-04-30 11:53 37.84953 42.85492 36127 ft 417 kts 274°
2026-04-30 11:54 37.85439 42.78203 36117 ft 417 kts 274°
2026-04-30 11:54 37.85923 42.70874 36118 ft 417 kts 274°
2026-04-30 11:55 37.86400 42.63598 36114 ft 418 kts 274°
2026-04-30 11:55 37.86876 42.56265 36102 ft 417 kts 274°
2026-04-30 11:56 37.87345 42.48951 36103 ft 417 kts 274°
2026-04-30 11:56 37.87811 42.41620 36103 ft 417 kts 274°
2026-04-30 11:57 37.88272 42.34301 36093 ft 417 kts 274°
2026-04-30 11:57 37.88726 42.27019 36089 ft 417 kts 274°
2026-04-30 11:58 37.89176 42.19728 36078 ft 417 kts 274°
2026-04-30 11:58 37.89624 42.12403 36078 ft 417 kts 274°
2026-04-30 11:59 37.90067 42.05070 36071 ft 417 kts 274°
2026-04-30 11:59 37.90505 41.97728 36063 ft 417 kts 274°
2026-04-30 12:00 37.90941 41.90401 36059 ft 417 kts 274°
2026-04-30 12:00 37.90977 41.83104 36054 ft 417 kts 268°
2026-04-30 12:01 37.90862 41.75758 36048 ft 417 kts 269°
2026-04-30 12:01 37.90752 41.68400 36045 ft 417 kts 269°
2026-04-30 12:02 37.90629 41.61068 36044 ft 417 kts 269°
2026-04-30 12:02 37.90500 41.53757 36037 ft 417 kts 268°
2026-04-30 12:03 37.90298 41.42739 36031 ft 417 kts 268°
2026-04-30 12:04 37.90158 41.35425 36023 ft 417 kts 268°
2026-04-30 12:04 37.90012 41.28070 36021 ft 417 kts 268°
2026-04-30 12:05 37.89862 41.20716 36018 ft 418 kts 268°
2026-04-30 12:05 37.89707 41.13345 36023 ft 418 kts 268°
2026-04-30 12:06 37.89549 41.06026 36020 ft 418 kts 268°
2026-04-30 12:06 37.89384 40.98650 36019 ft 418 kts 268°
2026-04-30 12:07 37.89217 40.91323 36022 ft 419 kts 268°
2026-04-30 12:07 37.89043 40.83943 36031 ft 418 kts 268°
2026-04-30 12:08 37.88865 40.76572 36033 ft 419 kts 268°
2026-04-30 12:08 37.88682 40.69184 36038 ft 419 kts 268°
2026-04-30 12:09 37.88495 40.61839 36038 ft 419 kts 268°
2026-04-30 12:09 37.88303 40.54458 36035 ft 419 kts 268°
2026-04-30 12:10 37.88106 40.47075 36028 ft 419 kts 268°
2026-04-30 12:10 37.87905 40.39689 36024 ft 419 kts 268°
2026-04-30 12:11 37.87700 40.32352 36020 ft 419 kts 268°
2026-04-30 12:11 37.87422 40.24964 36019 ft 419 kts 264°
2026-04-30 12:12 37.86251 40.17726 36021 ft 420 kts 253°
2026-04-30 12:12 37.84142 40.10863 36021 ft 421 kts 249°
2026-04-30 12:13 37.81929 40.03999 36032 ft 421 kts 249°
2026-04-30 12:13 37.79713 39.97133 36035 ft 421 kts 249°
2026-04-30 12:14 37.77506 39.90330 36049 ft 421 kts 249°
2026-04-30 12:14 37.75269 39.83454 36060 ft 421 kts 249°
2026-04-30 12:15 37.73054 39.76661 36069 ft 421 kts 249°
2026-04-30 12:15 37.70814 39.69809 36066 ft 421 kts 249°
2026-04-30 12:16 37.68574 39.62974 36061 ft 421 kts 248°
2026-04-30 12:16 37.66343 39.56179 36065 ft 421 kts 248°
2026-04-30 12:17 37.62979 39.45968 36060 ft 421 kts 248°
2026-04-30 12:17 37.60723 39.39139 36053 ft 421 kts 248°
2026-04-30 12:18 37.58463 39.32313 36051 ft 421 kts 248°
2026-04-30 12:18 37.56207 39.25517 36050 ft 422 kts 248°
2026-04-30 12:19 37.53935 39.18689 36047 ft 422 kts 248°
2026-04-30 12:19 37.51674 39.11909 36049 ft 422 kts 248°
2026-04-30 12:20 37.49394 39.05089 36048 ft 422 kts 248°
2026-04-30 12:20 37.47107 38.98260 36047 ft 422 kts 248°
2026-04-30 12:21 37.44828 38.91475 36051 ft 422 kts 248°
2026-04-30 12:21 37.42533 38.84654 36041 ft 423 kts 248°
2026-04-30 12:22 37.40244 38.77867 36046 ft 423 kts 248°
2026-04-30 12:22 37.37940 38.71052 36046 ft 423 kts 248°
2026-04-30 12:23 37.35626 38.64225 36047 ft 423 kts 248°
2026-04-30 12:23 37.33320 38.57436 36036 ft 423 kts 248°
2026-04-30 12:24 37.31005 38.50639 36024 ft 424 kts 248°
2026-04-30 12:24 37.28683 38.43833 36028 ft 424 kts 247°
2026-04-30 12:25 37.26360 38.37043 36028 ft 424 kts 247°
2026-04-30 12:25 37.24020 38.30217 36023 ft 424 kts 247°
2026-04-30 12:26 37.21702 38.23471 36024 ft 424 kts 247°
2026-04-30 12:26 37.19355 38.16659 36021 ft 424 kts 247°
2026-04-30 12:27 37.17007 38.09855 36022 ft 424 kts 247°
2026-04-30 12:27 37.14674 38.03112 36022 ft 425 kts 247°
2026-04-30 12:28 37.12315 37.96309 36022 ft 425 kts 247°
2026-04-30 12:28 37.10351 37.90658 36016 ft 425 kts 247°
2026-04-30 12:29 37.07988 37.83872 36020 ft 425 kts 247°
2026-04-30 12:29 37.05633 37.77124 36020 ft 425 kts 247°
2026-04-30 12:30 37.03260 37.70340 36013 ft 425 kts 246°
2026-04-30 12:30 37.00882 37.63556 36027 ft 425 kts 246°
2026-04-30 12:31 36.98514 37.56815 36017 ft 425 kts 246°
2026-04-30 12:31 36.96278 37.49959 36024 ft 425 kts 253°
2026-04-30 12:32 36.95222 37.42693 36025 ft 426 kts 266°
2026-04-30 12:32 36.95203 37.35276 36018 ft 426 kts 269°
2026-04-30 12:33 36.95227 37.27891 36023 ft 426 kts 269°
2026-04-30 12:33 36.95240 37.20473 36020 ft 427 kts 269°
2026-04-30 12:34 36.95250 37.13046 36014 ft 427 kts 269°
2026-04-30 12:34 36.95255 37.05667 36018 ft 427 kts 269°
2026-04-30 12:35 36.95255 36.98225 36014 ft 427 kts 269°
2026-04-30 12:35 36.95253 36.90826 36013 ft 427 kts 269°
2026-04-30 12:36 36.95245 36.83414 36010 ft 427 kts 269°
2026-04-30 12:36 36.95231 36.75984 36023 ft 427 kts 269°
2026-04-30 12:37 36.95214 36.68553 36013 ft 427 kts 269°
2026-04-30 12:37 36.94924 36.61208 36010 ft 425 kts 259°
2026-04-30 12:38 36.92927 36.54253 36012 ft 426 kts 241°
2026-04-30 12:38 36.89221 36.48491 36015 ft 430 kts 222°
2026-04-30 12:39 36.84267 36.44641 36005 ft 435 kts 204°
2026-04-30 12:39 36.78389 36.42570 36011 ft 438 kts 197°
2026-04-30 12:40 36.72538 36.40672 36007 ft 437 kts 197°
2026-04-30 12:40 36.66637 36.38760 36001 ft 437 kts 197°
2026-04-30 12:41 36.60764 36.36869 35991 ft 438 kts 197°
2026-04-30 12:41 36.54885 36.34980 35979 ft 438 kts 197°
2026-04-30 12:42 36.48978 36.33086 35969 ft 437 kts 197°
2026-04-30 12:42 36.43085 36.31200 35966 ft 438 kts 197°
2026-04-30 12:43 36.37220 36.29312 35953 ft 437 kts 198°
2026-04-30 12:43 36.31544 36.26677 35965 ft 435 kts 204°
2026-04-30 12:44 36.25918 36.23864 35968 ft 436 kts 204°
2026-04-30 12:44 36.20289 36.21068 35972 ft 436 kts 204°
2026-04-30 12:45 36.14653 36.18275 35977 ft 436 kts 204°
2026-04-30 12:45 36.09021 36.15487 35986 ft 436 kts 204°
2026-04-30 12:46 36.03374 36.12698 35995 ft 437 kts 204°
2026-04-30 12:46 35.97772 36.09933 35997 ft 436 kts 204°
2026-04-30 12:47 35.92124 36.07152 35996 ft 436 kts 204°
2026-04-30 12:47 35.86483 36.04378 35996 ft 437 kts 204°
2026-04-30 12:48 35.80843 36.01608 36003 ft 436 kts 204°
2026-04-30 12:48 35.75239 35.98860 36004 ft 436 kts 204°
2026-04-30 12:49 35.69599 35.96099 36005 ft 436 kts 204°
2026-04-30 12:49 35.63952 35.93338 36004 ft 436 kts 204°
2026-04-30 12:50 35.58338 35.90598 36003 ft 436 kts 204°
2026-04-30 12:50 35.52699 35.87850 36006 ft 436 kts 204°
2026-04-30 12:51 35.47047 35.85100 36007 ft 436 kts 204°
2026-04-30 12:51 35.41407 35.82359 36008 ft 436 kts 204°
2026-04-30 12:52 35.35760 35.79620 36007 ft 436 kts 204°
2026-04-30 12:52 35.30113 35.76884 36003 ft 436 kts 204°
2026-04-30 12:53 35.24464 35.74152 36008 ft 436 kts 204°
2026-04-30 12:53 35.18821 35.71512 36006 ft 437 kts 200°
2026-04-30 12:54 35.12944 35.69522 36007 ft 438 kts 198°
2026-04-30 12:54 35.07048 35.67544 36005 ft 438 kts 198°
2026-04-30 12:55 35.01181 35.65574 36010 ft 438 kts 198°
2026-04-30 12:55 34.95346 35.63621 35813 ft 435 kts 198°
2026-04-30 12:56 34.92397 35.62634 35294 ft 434 kts 198°
2026-04-30 12:56 34.89482 35.61658 34633 ft 434 kts 198°
2026-04-30 12:56 34.86608 35.60695 33858 ft 434 kts 198°
2026-04-30 12:56 34.83695 35.59721 32681 ft 435 kts 197°
2026-04-30 12:57 34.80765 35.58742 31468 ft 439 kts 197°
2026-04-30 12:57 34.77804 35.57753 30349 ft 443 kts 197°
2026-04-30 12:57 34.74826 35.56760 29525 ft 443 kts 197°
2026-04-30 12:57 34.71872 35.55778 28884 ft 436 kts 197°
2026-04-30 12:58 34.68951 35.54807 28220 ft 431 kts 197°
2026-04-30 12:58 34.66068 35.53850 27561 ft 427 kts 197°
2026-04-30 12:58 34.63216 35.52903 26908 ft 423 kts 197°
2026-04-30 12:58 34.60391 35.51965 26234 ft 419 kts 197°
2026-04-30 12:59 34.57574 35.51030 25420 ft 420 kts 197°
2026-04-30 12:59 34.54757 35.50095 24689 ft 419 kts 196°
2026-04-30 12:59 34.51953 35.49166 23936 ft 418 kts 196°
2026-04-30 12:59 34.49153 35.48238 23164 ft 416 kts 196°
2026-04-30 13:00 34.46417 35.47334 22557 ft 409 kts 196°
2026-04-30 13:00 34.43703 35.46438 22129 ft 399 kts 196°
2026-04-30 13:00 34.41008 35.45549 21554 ft 393 kts 196°
2026-04-30 13:00 34.38498 35.44721 21011 ft 388 kts 196°
2026-04-30 13:01 34.35907 35.43866 20438 ft 384 kts 196°
2026-04-30 13:01 34.33346 35.43022 19873 ft 380 kts 196°
2026-04-30 13:01 34.30802 35.42184 19315 ft 376 kts 196°
2026-04-30 13:01 34.30734 35.42161 19291 ft 376 kts 196°
2026-04-30 13:02 34.28895 35.41556 18869 ft 375 kts 196°
2026-04-30 13:02 34.26382 35.40729 18288 ft 372 kts 196°
2026-04-30 13:02 34.23898 35.39912 17736 ft 368 kts 196°
2026-04-30 13:02 34.21442 35.39105 17195 ft 363 kts 196°
2026-04-30 13:03 34.19051 35.38320 16673 ft 359 kts 196°
2026-04-30 13:03 34.16653 35.37532 16144 ft 355 kts 196°
2026-04-30 13:03 34.14278 35.36753 15624 ft 352 kts 196°
2026-04-30 13:03 34.11928 35.35983 15111 ft 348 kts 196°
2026-04-30 13:04 34.09593 35.35217 14594 ft 345 kts 196°
2026-04-30 13:04 34.07285 35.34460 14090 ft 343 kts 196°
2026-04-30 13:04 34.05101 35.33369 13510 ft 341 kts 211°
2026-04-30 13:04 34.03300 35.31555 13046 ft 335 kts 229°
2026-04-30 13:05 34.01892 35.29336 12606 ft 330 kts 231°
2026-04-30 13:05 34.00378 35.27158 12357 ft 345 kts 227°
2026-04-30 13:05 33.98702 35.25109 12098 ft 341 kts 222°
2026-04-30 13:06 33.94983 35.21636 11600 ft 337 kts 212°
2026-04-30 13:06 33.92982 35.20240 11341 ft 336 kts 207°
2026-04-30 13:06 33.90866 35.19046 10871 ft 336 kts 202°
2026-04-30 13:06 33.88673 35.18088 10405 ft 332 kts 197°
2026-04-30 13:07 33.86486 35.17392 10245 ft 318 kts 193°
2026-04-30 13:07 33.84350 35.16931 10121 ft 304 kts 188°
2026-04-30 13:07 33.82295 35.16686 9990 ft 291 kts 184°
2026-04-30 13:07 33.80319 35.16628 9654 ft 286 kts 180°
2026-04-30 13:08 33.78334 35.16751 9350 ft 280 kts 176°
2026-04-30 13:08 33.76431 35.17041 9161 ft 270 kts 172°
2026-04-30 13:08 33.74650 35.17466 9065 ft 258 kts 168°
2026-04-30 13:08 33.72972 35.18007 8936 ft 240 kts 164°
2026-04-30 13:09 33.71443 35.18627 8744 ft 225 kts 161°
2026-04-30 13:09 33.70012 35.19320 8431 ft 217 kts 158°
2026-04-30 13:09 33.68676 35.20076 8146 ft 210 kts 155°
2026-04-30 13:09 33.67397 35.20904 7756 ft 208 kts 152°
2026-04-30 13:10 33.66166 35.21809 7367 ft 207 kts 149°
2026-04-30 13:10 33.64979 35.22791 6982 ft 206 kts 146°
2026-04-30 13:10 33.63849 35.23839 6623 ft 205 kts 143°
2026-04-30 13:10 33.62778 35.24947 6339 ft 198 kts 140°
2026-04-30 13:11 33.61834 35.26033 6217 ft 182 kts 137°
2026-04-30 13:11 33.60963 35.27129 5879 ft 181 kts 134°
2026-04-30 13:11 33.60299 35.28036 5589 ft 182 kts 133°
2026-04-30 13:11 33.59520 35.29227 5251 ft 182 kts 124°
2026-04-30 13:12 33.59221 35.30690 4938 ft 185 kts 85°
2026-04-30 13:12 33.59719 35.32124 4751 ft 194 kts 54°
2026-04-30 13:12 33.60689 35.33248 4505 ft 194 kts 37°
2026-04-30 13:13 33.62884 35.34980 4019 ft 186 kts 32°
2026-04-30 13:13 33.63977 35.35824 3780 ft 186 kts 32°
2026-04-30 13:13 33.66098 35.37464 3309 ft 176 kts 32°
2026-04-30 13:14 33.67119 35.38253 3083 ft 172 kts 32°
2026-04-30 13:14 33.68100 35.39012 2855 ft 161 kts 32°
2026-04-30 13:14 33.69796 35.40325 2476 ft 131 kts 32°
2026-04-30 13:15 33.70549 35.40907 2307 ft 131 kts 32°
2026-04-30 13:15 33.72062 35.42078 1966 ft 128 kts 31°
2026-04-30 13:15 33.72809 35.42654 1788 ft 128 kts 31°
2026-04-30 13:16 33.73556 35.43218 1611 ft 127 kts 28°
2026-04-30 13:16 33.74296 35.43801 1455 ft 127 kts 32°
2026-04-30 13:16 33.75031 35.44386 1314 ft 127 kts 31°
2026-04-30 13:17 33.76513 35.45537 928 ft 127 kts 31°
2026-04-30 13:17 33.77258 35.46116 743 ft 128 kts 30°
2026-04-30 13:17 33.78503 35.47063 483 ft 126 kts 31°
2026-04-30 13:18 33.79232 35.47644 320 ft 125 kts 30°
2026-04-30 13:18 33.80694 35.48760 31 ft 116 kts 30°
2026-04-30 13:18 33.81216 35.49163 22 ft 59 kts 31°
2026-04-30 13:19 33.81512 35.49394 29 ft 35 kts 35°
2026-04-30 13:19 33.81702 35.49538 27 ft 32 kts 28°
2026-04-30 13:19 33.81886 35.49592 27 ft 24 kts
2026-04-30 13:19 33.81982 35.49598 26 ft 14 kts
2026-04-30 13:20 33.82082 35.49590 28 ft 12 kts 320°
2026-04-30 13:20 33.82122 35.49496 28 ft 14 kts 294°
2026-04-30 13:20 33.82170 35.49378 27 ft 15 kts 297°
2026-04-30 13:20 33.82197 35.49267 26 ft 11 kts 284°
2026-04-30 13:21 33.82258 35.49229 28 ft 11 kts 10°
2026-04-30 13:21 33.82319 35.49253 28 ft 7 kts 39°
2026-04-30 13:21 33.82313 35.49299 27 ft 3 kts 119°
2026-04-30 13:22 33.82307 35.49314 27 ft 0 kts 118°